Weather in Vereya

Russia / Moscow Oblast     55°46′21″N   39°05′54″E
temp.,
°C
wind,
m/s
gust,
m/s
humid.,
%
clouds,
%
prec.,
mm/h
press.,
hPa
HPBL,
m
24 february, wed
wed2400:00−24sse2292100 0.0 104520
03:00−24sse239398 0.0 104440
06:00−24s2594100 0.0 1041111
09:00−20sse3692100 0.0 1040237
12:00−16sse478896 0.0 1037337
15:00−14s599498 0.3 1034418
18:00−14s4994100 0.4 1033479
21:00−14s4995100 0.6 1030427
25 february, thu
thu2500:00−14s4895100 0.5 1027395
03:00−12ssw4995100 1.9 1025373
06:00−10ssw51195100 2.1 1019398
09:00−3sw51295100 3.9 1015488
12:00+2w412100100 1.0 1012396
15:00+2wnw514100100 1.0 1012471
18:00+2wnw412100100 0.0 1013407
21:00+1wnw3999100 0.0 1014313
26 february, fri
fri2600:00+1wsw3799100 0.0 1013185
03:00+1wsw3899100 0.3 1012227
06:00+2wsw411100100 0.8 1009325
09:00+2wsw51399100 1.8 1007466
12:00+2wsw514100100 0.5 1004443
15:00+3wsw616100100 1.1 1002588
18:00+2w61595100 0.3 1002792
21:00+1w71590100 0.3 1002994
27 february, sat
sat2700:00+1w61490100 0.1 1001952
03:00+1wnw71490100 0.1 10011035
06:00+1wnw6138995 0.0 1001895
09:000wnw5119294 0.0 1002793
12:00+1nw51099100 0.0 1003679
15:00+1nw499497 0.2 1005711
18:000nw3898100 0.1 1006423
21:00−1nw399697 0.3 1008344
28 february, sun
sun2800:00−2nw389791 0.1 1009291
03:00−2nnw399789 0.4 1011384
06:00−4nnw499589 0.2 1012393
09:00−3nnw499389 0.4 1014506
12:00−2nnw578798 0.1 1016771
15:00−2nnw478899 0.2 1017821
18:00−4nnw489099 0.1 1019570
21:00−5n378999 0.2 1021543